Flag for Turkey Weather past 2 weeks in Mersin, Turkey

Now
81 °F

Passing clouds.


Feels Like: 80 °F
Forecast: 65 / 85 °F
Wind: 1 mph from North

Location: Adana / Sakirpasa

Current Time: Sep 20, 2014 at 11:00:36 AM

Latest Report: Sep 20, 2014 at 10:20 AM


Visibility: N/A

Pressure: 29.92 "Hg

Humidity: 37%

Dew point: 52 °F

Location of MersinLocation

Historic Weather in Mersin — Graph

°F

Mersin temperature yesterday

Maximum temperature yesterday: 86 °F (at 2:20 PM)
Minimum temperature yesterday: 68 °F (at 11:50 PM)
Average temperature yesterday: 75 °F

Past Weeks' High & Low Weather Summary

 TemperatureHumidityPressure
High93 °F (Sep 13, 1:50 PM)94% (Sep 18, 4:50 PM)29.95 "Hg (Sep 18, 4:50 PM)
Low63 °F (Sep 20, 6:20 AM)33% (Sep 17, 2:50 PM)29.65 "Hg (Sep 5, 12:50 PM)
Average80 °F67%29.81 "Hg
* Reported Sep 5 9:20 AM — Sep 20 9:50 AM, Mersin, Weather by CustomWeather, © 2014

Note: Actual official high and low records may vary slightly from our data, if they occured in-between our weather recording intervals... More about our weather records

Advertising

Mersin weather history for previous 24 hours

 ConditionsComfort  
Time TempWeatherWind HumidityBarometerVisibility
9:50 AM
Sep 20
79 °FPassing clouds.3 mph45%29.92 "HgN/A
9:20 AM79 °FPassing clouds.2 mph45%29.92 "HgN/A
8:50 AM75 °FPassing clouds.1 mph57%29.92 "HgN/A
8:20 AM70 °FPassing clouds.3 mph78%29.92 "HgN/A
7:50 AM70 °FPassing clouds.1 mph78%29.92 "HgN/A
7:20 AM66 °FPassing clouds.5 mph88%29.92 "HgN/A
6:50 AM63 °FPassing clouds.3 mph94%29.92 "HgN/A
6:20 AM63 °FPassing clouds.2 mph94%29.89 "HgN/A
5:50 AM64 °FPassing clouds.No wind88%29.89 "HgN/A
5:20 AM64 °FPassing clouds.3 mph88%29.89 "HgN/A
4:50 AM64 °FPassing clouds.No wind88%29.89 "HgN/A
3:50 AM64 °FPassing clouds.1 mph88%29.89 "HgN/A
3:20 AM66 °FPassing clouds.No wind83%29.89 "HgN/A
2:50 AM66 °FPassing clouds.3 mph83%29.89 "HgN/A
2:20 AM66 °FPassing clouds.3 mph83%29.89 "HgN/A
1:50 AM66 °FPassing clouds.5 mph83%29.92 "HgN/A
1:20 AM66 °FPassing clouds.3 mph83%29.92 "HgN/A
12:50 AM66 °FPassing clouds.5 mph88%29.92 "HgN/A
12:20 AM68 °FPassing clouds.6 mph83%29.92 "HgN/A
11:50 PM
Sep 19
68 °FPassing clouds.5 mph83%29.92 "HgN/A
11:20 PM70 °FPassing clouds.2 mph78%29.92 "HgN/A
10:50 PM72 °FPassing clouds.5 mph69%29.92 "HgN/A
10:20 PM70 °FPassing clouds.7 mph73%29.92 "HgN/A
9:50 PM72 °FPassing clouds.6 mph69%29.92 "HgN/A
9:20 PM70 °FPassing clouds.2 mph73%29.92 "HgN/A
8:50 PM72 °FPassing clouds.6 mph69%29.92 "HgN/A
8:20 PM72 °FPassing clouds.7 mph69%29.89 "HgN/A
7:50 PM72 °FPassing clouds.9 mph69%29.89 "HgN/A
7:20 PM72 °FScattered clouds.6 mph73%29.92 "HgN/A
6:50 PM72 °FScattered clouds.6 mph73%29.92 "HgN/A
6:20 PM72 °FScattered clouds.10 mph69%29.92 "HgN/A
5:50 PM73 °FSprinkles. Partly sunny.8 mph69%29.89 "HgN/A
5:20 PM73 °FSprinkles. Partly sunny.12 mph74%29.89 "Hg5 mi
4:50 PM79 °FScattered clouds.12 mph54%29.89 "HgN/A
4:20 PM84 °FScattered clouds.12 mph48%29.86 "HgN/A
3:50 PM84 °FScattered clouds.13 mph48%29.83 "HgN/A
3:20 PM86 °FScattered clouds.9 mph38%29.86 "HgN/A
2:50 PM86 °FScattered clouds.8 mph46%29.86 "HgN/A
2:20 PM86 °FScattered clouds.3 mph46%29.86 "HgN/A
1:50 PM84 °FScattered clouds.5 mph48%29.89 "HgN/A
1:20 PM84 °FScattered clouds.5 mph45%29.89 "HgN/A
12:50 PM84 °FScattered clouds.6 mph51%29.92 "HgN/A
12:20 PM82 °FScattered clouds.6 mph55%29.92 "HgN/A
11:50 AM81 °FScattered clouds.6 mph66%29.92 "HgN/A
11:20 AM81 °FScattered clouds.5 mph62%29.95 "HgN/A
Weather by CustomWeather, © 2014

See weather overviewHow to use our weather pages